contact:dominique.lefevre@mio.osupytheas.fr, maurice.libes@osupytheas.fr, didier.mallarino@osupytheas.fr
Project:EMSO http://www.emso-fr.org/EMSO-France
Depth: 2436.0 m
Title:EMSO Ligure Ouest : Data MII capteur MICROCAT
DateTime_Computer,Latitude,Longitude,Temperature,Conductivity,Pressure,DateTime_Instrument
DateTime_Computer,Latitude,Longitude,degC,S m-1,dbar,DateTime_Instrument
2021-09-07T00:02:21Z,42.805,6.029,13.2985,4.60000,2470.39,2021-9-07T02:03:41Z
2021-09-07T00:05:24Z,42.805,6.029,13.2991,4.59998,2470.343,2021-9-07T02:06:44Z
2021-09-07T00:08:27Z,42.805,6.029,13.2985,4.59999,2470.39,2021-9-07T02:09:48Z
2021-09-07T00:11:30Z,42.805,6.029,13.2989,4.59999,2470.343,2021-9-07T02:12:51Z
2021-09-07T00:14:33Z,42.805,6.029,13.2983,4.60003,2470.353,2021-9-07T02:15:54Z
2021-09-07T00:17:37Z,42.805,6.029,13.2988,4.59999,2470.366,2021-9-07T02:18:57Z
2021-09-07T00:20:40Z,42.805,6.029,13.2990,4.59998,2470.39,2021-9-07T02:22:00Z
2021-09-07T00:23:43Z,42.805,6.029,13.2985,4.59998,2470.38,2021-9-07T02:25:03Z
2021-09-07T00:26:46Z,42.805,6.029,13.2983,4.60001,2470.366,2021-9-07T02:28:06Z
2021-09-07T00:29:49Z,42.805,6.029,13.2984,4.60001,2470.366,2021-9-07T02:31:09Z
2021-09-07T00:32:52Z,42.805,6.029,13.2988,4.59999,2470.38,2021-9-07T02:34:12Z
2021-09-07T00:35:55Z,42.805,6.029,13.2986,4.60000,2470.366,2021-9-07T02:37:16Z
2021-09-07T00:38:58Z,42.805,6.029,13.2989,4.60001,2470.343,2021-9-07T02:40:19Z
2021-09-07T00:42:02Z,42.805,6.029,13.2982,4.59999,2470.343,2021-9-07T02:43:22Z
2021-09-07T00:45:05Z,42.805,6.029,13.2986,4.60003,2470.33,2021-9-07T02:46:25Z
2021-09-07T00:48:08Z,42.805,6.029,13.2983,4.60000,2470.32,2021-9-07T02:49:28Z
2021-09-07T00:51:11Z,42.805,6.029,13.2985,4.59999,2470.334,2021-9-07T02:52:31Z
2021-09-07T00:54:14Z,42.805,6.029,13.2986,4.59999,2470.32,2021-9-07T02:55:34Z
2021-09-07T00:57:17Z,42.805,6.029,13.2988,4.59999,2470.366,2021-9-07T02:58:37Z
2021-09-07T01:00:20Z,42.805,6.029,13.2989,4.59998,2470.32,2021-9-07T03:01:41Z
2021-09-07T01:03:23Z,42.805,6.029,13.2991,4.59998,2470.334,2021-9-07T03:04:44Z
2021-09-07T01:06:26Z,42.805,6.029,13.2983,4.59999,2470.343,2021-9-07T03:07:47Z
2021-09-07T01:09:30Z,42.805,6.029,13.2990,4.60002,2470.357,2021-9-07T03:10:50Z
2021-09-07T01:12:33Z,42.805,6.029,13.2982,4.60007,2470.334,2021-9-07T03:13:53Z
2021-09-07T01:15:36Z,42.805,6.029,13.2983,4.60000,2470.343,2021-9-07T03:16:56Z
2021-09-07T01:18:39Z,42.805,6.029,13.2986,4.60000,2470.343,2021-9-07T03:19:59Z
2021-09-07T01:21:42Z,42.805,6.029,13.2983,4.59999,2470.334,2021-9-07T03:23:02Z
2021-09-07T01:24:45Z,42.805,6.029,13.2986,4.60001,2470.32,2021-9-07T03:26:06Z
2021-09-07T01:27:48Z,42.805,6.029,13.2986,4.59999,2470.31,2021-9-07T03:29:09Z
2021-09-07T01:30:51Z,42.805,6.029,13.2983,4.60001,2470.32,2021-9-07T03:32:12Z
2021-09-07T01:33:55Z,42.805,6.029,13.2988,4.60001,2470.32,2021-9-07T03:35:15Z
2021-09-07T01:36:58Z,42.805,6.029,13.2986,4.60003,2470.297,2021-9-07T03:38:18Z
2021-09-07T01:40:01Z,42.805,6.029,13.2990,4.60002,2470.32,2021-9-07T03:41:21Z
2021-09-07T01:43:04Z,42.805,6.029,13.2986,4.60002,2470.334,2021-9-07T03:44:24Z
2021-09-07T01:46:07Z,42.805,6.029,13.2986,4.59998,2470.334,2021-9-07T03:47:27Z
2021-09-07T01:49:10Z,42.805,6.029,13.2989,4.59999,2470.334,2021-9-07T03:50:30Z
2021-09-07T01:52:13Z,42.805,6.029,13.2984,4.59999,2470.297,2021-9-07T03:53:34Z
2021-09-07T01:55:16Z,42.805,6.029,13.2991,4.60001,2470.297,2021-9-07T03:56:37Z
2021-09-07T01:58:19Z,42.805,6.029,13.2989,4.60003,2470.31,2021-9-07T03:59:40Z
2021-09-07T02:01:23Z,42.805,6.029,13.2989,4.60000,2470.297,2021-9-07T04:02:43Z
2021-09-07T02:04:26Z,42.805,6.029,13.2989,4.60003,2470.32,2021-9-07T04:05:46Z
2021-09-07T02:07:29Z,42.805,6.029,13.2984,4.60001,2470.32,2021-9-07T04:08:49Z
2021-09-07T02:10:32Z,42.805,6.029,13.2987,4.59999,2470.31,2021-9-07T04:11:52Z
2021-09-07T02:13:35Z,42.805,6.029,13.2987,4.60004,2470.32,2021-9-07T04:14:55Z
2021-09-07T02:16:38Z,42.805,6.029,13.2987,4.60004,2470.32,2021-9-07T04:17:59Z
2021-09-07T02:19:41Z,42.805,6.029,13.2991,4.60001,2470.31,2021-9-07T04:21:02Z
2021-09-07T02:22:44Z,42.805,6.029,13.2989,4.60006,2470.31,2021-9-07T04:24:05Z
2021-09-07T02:25:48Z,42.805,6.029,13.2992,4.60006,2470.32,2021-9-07T04:27:08Z
2021-09-07T02:28:51Z,42.805,6.029,13.2984,4.60011,2470.297,2021-9-07T04:30:11Z
2021-09-07T02:31:54Z,42.805,6.029,13.2990,4.60015,2470.334,2021-9-07T04:33:14Z
2021-09-07T02:34:57Z,42.805,6.029,13.2992,4.60004,2470.343,2021-9-07T04:36:17Z
2021-09-07T02:38:00Z,42.805,6.029,13.2991,4.60001,2470.343,2021-9-07T04:39:20Z
2021-09-07T02:41:03Z,42.805,6.029,13.2990,4.60002,2470.297,2021-9-07T04:42:23Z
2021-09-07T02:44:06Z,42.805,6.029,13.2987,4.60004,2470.31,2021-9-07T04:45:27Z
2021-09-07T02:47:09Z,42.805,6.029,13.2986,4.60006,2470.297,2021-9-07T04:48:30Z
2021-09-07T02:50:12Z,42.805,6.029,13.2989,4.60000,2470.32,2021-9-07T04:51:33Z
2021-09-07T02:53:16Z,42.805,6.029,13.2987,4.60000,2470.297,2021-9-07T04:54:36Z
2021-09-07T02:56:19Z,42.805,6.029,13.2986,4.60002,2470.32,2021-9-07T04:57:39Z
2021-09-07T02:59:22Z,42.805,6.029,13.2986,4.60008,2470.357,2021-9-07T05:00:42Z
2021-09-07T03:02:25Z,42.805,6.029,13.2987,4.60007,2470.32,2021-9-07T05:03:45Z
2021-09-07T03:05:28Z,42.805,6.029,13.2986,4.60017,2470.32,2021-9-07T05:06:48Z
2021-09-07T03:08:31Z,42.805,6.029,13.2988,4.60003,2470.343,2021-9-07T05:09:52Z
2021-09-07T03:11:34Z,42.805,6.029,13.2990,4.60004,2470.334,2021-9-07T05:12:55Z
2021-09-07T03:14:37Z,42.805,6.029,13.2991,4.60008,2470.32,2021-9-07T05:15:58Z
2021-09-07T03:17:41Z,42.805,6.029,13.2990,4.60006,2470.32,2021-9-07T05:19:01Z
2021-09-07T03:20:44Z,42.805,6.029,13.2989,4.60003,2470.32,2021-9-07T05:22:04Z
2021-09-07T03:23:47Z,42.805,6.029,13.2986,4.60004,2470.334,2021-9-07T05:25:07Z
2021-09-07T03:26:50Z,42.805,6.029,13.2993,4.60006,2470.334,2021-9-07T05:28:10Z
2021-09-07T03:29:53Z,42.805,6.029,13.2983,4.60004,2470.306,2021-9-07T05:31:13Z
2021-09-07T03:32:56Z,42.805,6.029,13.2986,4.60007,2470.366,2021-9-07T05:34:16Z
2021-09-07T03:35:59Z,42.805,6.029,13.2990,4.60008,2470.32,2021-9-07T05:37:20Z
2021-09-07T03:39:02Z,42.805,6.029,13.2986,4.60005,2470.343,2021-9-07T05:40:23Z
2021-09-07T03:42:05Z,42.805,6.029,13.2986,4.60006,2470.334,2021-9-07T05:43:26Z
2021-09-07T03:45:09Z,42.805,6.029,13.2988,4.60007,2470.357,2021-9-07T05:46:29Z
2021-09-07T03:48:12Z,42.805,6.029,13.2987,4.60003,2470.334,2021-9-07T05:49:32Z
2021-09-07T03:51:15Z,42.805,6.029,13.2991,4.60003,2470.366,2021-9-07T05:52:35Z
2021-09-07T03:54:18Z,42.805,6.029,13.2986,4.60009,2470.357,2021-9-07T05:55:38Z
2021-09-07T03:57:21Z,42.805,6.029,13.2986,4.60013,2470.343,2021-9-07T05:58:41Z
2021-09-07T04:00:24Z,42.805,6.029,13.2985,4.60006,2470.366,2021-9-07T06:01:45Z
2021-09-07T04:03:27Z,42.805,6.029,13.2986,4.60009,2470.343,2021-9-07T06:04:48Z
2021-09-07T04:06:30Z,42.805,6.029,13.2986,4.60017,2470.32,2021-9-07T06:07:51Z
2021-09-07T04:09:34Z,42.805,6.029,13.2986,4.60007,2470.357,2021-9-07T06:10:54Z
2021-09-07T04:12:37Z,42.805,6.029,13.2986,4.60021,2470.366,2021-9-07T06:13:57Z
2021-09-07T04:15:40Z,42.805,6.029,13.2987,4.60005,2470.38,2021-9-07T06:17:00Z
2021-09-07T04:18:43Z,42.805,6.029,13.2982,4.60017,2470.366,2021-9-07T06:20:03Z
2021-09-07T04:21:46Z,42.805,6.029,13.2988,4.60020,2470.343,2021-9-07T06:23:06Z
2021-09-07T04:24:49Z,42.805,6.029,13.2986,4.60007,2470.38,2021-9-07T06:26:09Z
2021-09-07T04:27:52Z,42.805,6.029,13.2985,4.60016,2470.413,2021-9-07T06:29:13Z
2021-09-07T04:30:55Z,42.805,6.029,13.2987,4.60011,2470.366,2021-9-07T06:32:16Z
2021-09-07T04:33:58Z,42.805,6.029,13.2986,4.60013,2470.343,2021-9-07T06:35:19Z
2021-09-07T04:37:02Z,42.805,6.029,13.2984,4.60016,2470.366,2021-9-07T06:38:22Z
2021-09-07T04:40:05Z,42.805,6.029,13.2986,4.60011,2470.404,2021-9-07T06:41:25Z
2021-09-07T04:43:08Z,42.805,6.029,13.2984,4.60011,2470.404,2021-9-07T06:44:28Z
2021-09-07T04:46:11Z,42.805,6.029,13.2986,4.60010,2470.38,2021-9-07T06:47:31Z
2021-09-07T04:49:14Z,42.805,6.029,13.2985,4.60013,2470.38,2021-9-07T06:50:34Z
2021-09-07T04:52:17Z,42.805,6.029,13.2983,4.60006,2470.39,2021-9-07T06:53:38Z
2021-09-07T04:55:20Z,42.805,6.029,13.2984,4.60006,2470.399,2021-9-07T06:56:41Z
2021-09-07T04:58:23Z,42.805,6.029,13.2983,4.60010,2470.39,2021-9-07T06:59:44Z
2021-09-07T05:01:27Z,42.805,6.029,13.2986,4.60007,2470.366,2021-9-07T07:02:47Z
2021-09-07T05:04:30Z,42.805,6.029,13.2983,4.60009,2470.413,2021-9-07T07:05:50Z
2021-09-07T05:07:33Z,42.805,6.029,13.2986,4.60008,2470.413,2021-9-07T07:08:53Z
2021-09-07T05:10:36Z,42.805,6.029,13.2986,4.60003,2470.437,2021-9-07T07:11:56Z
2021-09-07T05:13:39Z,42.805,6.029,13.2986,4.60007,2470.45,2021-9-07T07:14:59Z
2021-09-07T05:16:42Z,42.805,6.029,13.2982,4.60006,2470.413,2021-9-07T07:18:02Z
2021-09-07T05:19:45Z,42.805,6.029,13.2986,4.60003,2470.45,2021-9-07T07:21:06Z
2021-09-07T05:22:48Z,42.805,6.029,13.2991,4.60007,2470.413,2021-9-07T07:24:09Z
2021-09-07T05:25:51Z,42.805,6.029,13.2988,4.60021,2470.437,2021-9-07T07:27:12Z
2021-09-07T05:28:55Z,42.805,6.029,13.2986,4.60004,2470.413,2021-9-07T07:30:15Z
2021-09-07T05:31:58Z,42.805,6.029,13.2986,4.60008,2470.46,2021-9-07T07:33:18Z
2021-09-07T05:35:01Z,42.805,6.029,13.2986,4.60008,2470.437,2021-9-07T07:36:21Z
2021-09-07T05:38:04Z,42.805,6.029,13.2986,4.60005,2470.437,2021-9-07T07:39:24Z
2021-09-07T05:41:07Z,42.805,6.029,13.2986,4.60003,2470.437,2021-9-07T07:42:27Z
2021-09-07T05:44:10Z,42.805,6.029,13.2990,4.60010,2470.413,2021-9-07T07:45:31Z
2021-09-07T05:47:13Z,42.805,6.029,13.2986,4.60006,2470.46,2021-9-07T07:48:34Z
2021-09-07T05:50:16Z,42.805,6.029,13.2987,4.60006,2470.46,2021-9-07T07:51:37Z
2021-09-07T05:53:20Z,42.805,6.029,13.2989,4.60005,2470.46,2021-9-07T07:54:40Z
2021-09-07T05:56:23Z,42.805,6.029,13.2988,4.60007,2470.474,2021-9-07T07:57:43Z
2021-09-07T05:59:26Z,42.805,6.029,13.2990,4.60006,2470.474,2021-9-07T08:00:46Z
2021-09-07T06:02:29Z,42.805,6.029,13.2989,4.60005,2470.46,2021-9-07T08:03:49Z
2021-09-07T06:05:32Z,42.805,6.029,13.2987,4.60006,2470.474,2021-9-07T08:06:52Z
2021-09-07T06:08:35Z,42.805,6.029,13.2991,4.60007,2470.474,2021-9-07T08:09:56Z
2021-09-07T06:11:38Z,42.805,6.029,13.2986,4.60004,2470.46,2021-9-07T08:12:59Z
2021-09-07T06:14:41Z,42.805,6.029,13.2986,4.60003,2470.497,2021-9-07T08:16:02Z
2021-09-07T06:17:45Z,42.805,6.029,13.2986,4.60003,2470.497,2021-9-07T08:19:05Z
2021-09-07T06:20:48Z,42.805,6.029,13.2988,4.60003,2470.474,2021-9-07T08:22:08Z
2021-09-07T06:23:51Z,42.805,6.029,13.2983,4.60005,2470.46,2021-9-07T08:25:11Z
2021-09-07T06:26:54Z,42.805,6.029,13.2986,4.60006,2470.497,2021-9-07T08:28:14Z
2021-09-07T06:29:57Z,42.805,6.029,13.2984,4.60007,2470.483,2021-9-07T08:31:17Z
2021-09-07T06:33:00Z,42.805,6.029,13.2986,4.60004,2470.497,2021-9-07T08:34:20Z
2021-09-07T06:36:03Z,42.805,6.029,13.2985,4.60004,2470.497,2021-9-07T08:37:24Z
2021-09-07T06:39:06Z,42.805,6.029,13.2986,4.60003,2470.483,2021-9-07T08:40:27Z
2021-09-07T06:42:09Z,42.805,6.029,13.2984,4.60006,2470.474,2021-9-07T08:43:30Z
2021-09-07T06:45:13Z,42.805,6.029,13.2987,4.60004,2470.474,2021-9-07T08:46:33Z
2021-09-07T06:48:16Z,42.805,6.029,13.2988,4.60006,2470.46,2021-9-07T08:49:36Z
2021-09-07T06:51:19Z,42.805,6.029,13.2983,4.60004,2470.474,2021-9-07T08:52:39Z
2021-09-07T06:54:22Z,42.805,6.029,13.2988,4.60006,2470.497,2021-9-07T08:55:42Z
2021-09-07T06:57:25Z,42.805,6.029,13.2986,4.60007,2470.483,2021-9-07T08:58:45Z
2021-09-07T07:00:28Z,42.805,6.029,13.2987,4.60006,2470.52,2021-9-07T09:01:49Z
2021-09-07T07:03:31Z,42.805,6.029,13.2988,4.60005,2470.52,2021-9-07T09:04:52Z
2021-09-07T07:06:34Z,42.805,6.029,13.2981,4.60005,2470.52,2021-9-07T09:07:55Z
2021-09-07T07:09:38Z,42.805,6.029,13.2988,4.60001,2470.483,2021-9-07T09:10:58Z
2021-09-07T07:12:41Z,42.805,6.029,13.2990,4.60003,2470.483,2021-9-07T09:14:01Z
2021-09-07T07:15:44Z,42.805,6.029,13.2991,4.60004,2470.52,2021-9-07T09:17:04Z
2021-09-07T07:18:47Z,42.805,6.029,13.2986,4.60003,2470.47,2021-9-07T09:20:07Z
2021-09-07T07:21:50Z,42.805,6.029,13.2983,4.60003,2470.497,2021-9-07T09:23:10Z
2021-09-07T07:24:53Z,42.805,6.029,13.2986,4.60002,2470.446,2021-9-07T09:26:13Z
2021-09-07T07:27:56Z,42.805,6.029,13.2985,4.60002,2470.497,2021-9-07T09:29:17Z
2021-09-07T07:30:59Z,42.805,6.029,13.2988,4.60001,2470.497,2021-9-07T09:32:20Z
2021-09-07T07:34:02Z,42.805,6.029,13.2986,4.60006,2470.46,2021-9-07T09:35:23Z
2021-09-07T07:37:06Z,42.805,6.029,13.2987,4.60004,2470.45,2021-9-07T09:38:26Z
2021-09-07T07:40:09Z,42.805,6.029,13.2985,4.60003,2470.507,2021-9-07T09:41:29Z
2021-09-07T07:43:12Z,42.805,6.029,13.2984,4.60003,2470.497,2021-9-07T09:44:32Z
2021-09-07T07:46:15Z,42.805,6.029,13.2985,4.60003,2470.483,2021-9-07T09:47:35Z
2021-09-07T07:49:18Z,42.805,6.029,13.2987,4.60005,2470.474,2021-9-07T09:50:38Z
2021-09-07T07:52:21Z,42.805,6.029,13.2990,4.60005,2470.46,2021-9-07T09:53:41Z
2021-09-07T07:55:24Z,42.805,6.029,13.2988,4.60005,2470.46,2021-9-07T09:56:45Z
2021-09-07T07:58:27Z,42.805,6.029,13.2987,4.60002,2470.474,2021-9-07T09:59:48Z
2021-09-07T08:01:31Z,42.805,6.029,13.2986,4.60003,2470.507,2021-9-07T10:02:51Z
2021-09-07T08:04:34Z,42.805,6.029,13.2985,4.60003,2470.474,2021-9-07T10:05:54Z
2021-09-07T08:07:37Z,42.805,6.029,13.2986,4.60005,2470.46,2021-9-07T10:08:57Z
2021-09-07T08:10:40Z,42.805,6.029,13.2988,4.60003,2470.46,2021-9-07T10:12:00Z
2021-09-07T08:13:43Z,42.805,6.029,13.2985,4.60001,2470.45,2021-9-07T10:15:03Z
2021-09-07T08:16:46Z,42.805,6.029,13.2987,4.60004,2470.483,2021-9-07T10:18:06Z
2021-09-07T08:19:49Z,42.805,6.029,13.2986,4.60001,2470.437,2021-9-07T10:21:10Z
2021-09-07T08:22:52Z,42.805,6.029,13.2988,4.60005,2470.45,2021-9-07T10:24:13Z
2021-09-07T08:25:55Z,42.805,6.029,13.2984,4.60006,2470.437,2021-9-07T10:27:16Z
2021-09-07T08:28:59Z,42.805,6.029,13.2986,4.60002,2470.483,2021-9-07T10:30:19Z
2021-09-07T08:32:02Z,42.805,6.029,13.2985,4.60003,2470.46,2021-9-07T10:33:22Z
2021-09-07T08:35:05Z,42.805,6.029,13.2984,4.60002,2470.46,2021-9-07T10:36:25Z
2021-09-07T08:38:08Z,42.805,6.029,13.2989,4.60003,2470.474,2021-9-07T10:39:28Z
2021-09-07T08:41:11Z,42.805,6.029,13.2985,4.60003,2470.474,2021-9-07T10:42:31Z
2021-09-07T08:44:14Z,42.805,6.029,13.2984,4.60003,2470.46,2021-9-07T10:45:35Z
2021-09-07T08:47:17Z,42.805,6.029,13.2984,4.60003,2470.413,2021-9-07T10:48:38Z
2021-09-07T08:50:20Z,42.805,6.029,13.2990,4.60003,2470.46,2021-9-07T10:51:41Z
2021-09-07T08:53:24Z,42.805,6.029,13.2987,4.60003,2470.483,2021-9-07T10:54:44Z
2021-09-07T08:56:27Z,42.805,6.029,13.2989,4.60003,2470.45,2021-9-07T10:57:47Z
2021-09-07T08:59:30Z,42.805,6.029,13.2988,4.60001,2470.437,2021-9-07T11:00:50Z
2021-09-07T09:02:33Z,42.805,6.029,13.2990,4.60002,2470.45,2021-9-07T11:03:53Z
2021-09-07T09:05:36Z,42.805,6.029,13.2984,4.60001,2470.46,2021-9-07T11:06:56Z
2021-09-07T09:08:39Z,42.805,6.029,13.2986,4.60002,2470.46,2021-9-07T11:10:00Z
2021-09-07T09:11:42Z,42.805,6.029,13.2987,4.60003,2470.45,2021-9-07T11:13:03Z
2021-09-07T09:14:45Z,42.805,6.029,13.2987,4.60003,2470.399,2021-9-07T11:16:06Z
2021-09-07T09:17:49Z,42.805,6.029,13.2986,4.60003,2470.413,2021-9-07T11:19:09Z
2021-09-07T09:20:52Z,42.805,6.029,13.2986,4.60001,2470.437,2021-9-07T11:22:12Z
2021-09-07T09:23:55Z,42.805,6.029,13.2983,4.60000,2470.427,2021-9-07T11:25:15Z
2021-09-07T09:26:58Z,42.805,6.029,13.2987,4.60005,2470.413,2021-9-07T11:28:18Z
2021-09-07T09:30:01Z,42.805,6.029,13.2989,4.60000,2470.413,2021-9-07T11:31:21Z
2021-09-07T09:33:04Z,42.805,6.029,13.2985,4.60001,2470.437,2021-9-07T11:34:24Z
2021-09-07T09:36:07Z,42.805,6.029,13.2988,4.60003,2470.437,2021-9-07T11:37:28Z
2021-09-07T09:39:10Z,42.805,6.029,13.2990,4.60002,2470.46,2021-9-07T11:40:31Z
2021-09-07T09:42:14Z,42.805,6.029,13.2987,4.60004,2470.45,2021-9-07T11:43:34Z
2021-09-07T09:45:17Z,42.805,6.029,13.2983,4.60002,2470.45,2021-9-07T11:46:37Z
2021-09-07T09:48:20Z,42.805,6.029,13.2984,4.60003,2470.427,2021-9-07T11:49:40Z
2021-09-07T09:51:23Z,42.805,6.029,13.2986,4.60000,2470.413,2021-9-07T11:52:43Z
2021-09-07T09:54:26Z,42.805,6.029,13.2986,4.60002,2470.39,2021-9-07T11:55:46Z
2021-09-07T09:57:29Z,42.805,6.029,13.2986,4.60001,2470.427,2021-9-07T11:58:50Z
2021-09-07T10:00:32Z,42.805,6.029,13.2986,4.60002,2470.413,2021-9-07T12:01:53Z
2021-09-07T10:03:35Z,42.805,6.029,13.2987,4.60000,2470.427,2021-9-07T12:04:56Z
2021-09-07T10:06:39Z,42.805,6.029,13.2986,4.60002,2470.427,2021-9-07T12:07:59Z
2021-09-07T10:09:42Z,42.805,6.029,13.2987,4.60003,2470.404,2021-9-07T12:11:02Z
2021-09-07T10:12:45Z,42.805,6.029,13.2986,4.60001,2470.413,2021-9-07T12:14:05Z
2021-09-07T10:15:48Z,42.805,6.029,13.2989,4.60000,2470.39,2021-9-07T12:17:08Z
2021-09-07T10:18:51Z,42.805,6.029,13.2986,4.60000,2470.413,2021-9-07T12:20:11Z
2021-09-07T10:21:54Z,42.805,6.029,13.2983,4.60001,2470.39,2021-9-07T12:23:15Z
2021-09-07T10:24:57Z,42.805,6.029,13.2986,4.59999,2470.39,2021-9-07T12:26:18Z
2021-09-07T10:28:00Z,42.805,6.029,13.2988,4.60000,2470.413,2021-9-07T12:29:21Z
2021-09-07T10:31:04Z,42.805,6.029,13.2983,4.59999,2470.39,2021-9-07T12:32:24Z
2021-09-07T10:34:07Z,42.805,6.029,13.2986,4.60000,2470.39,2021-9-07T12:35:27Z
2021-09-07T10:37:10Z,42.805,6.029,13.2983,4.59999,2470.413,2021-9-07T12:38:30Z
2021-09-07T10:40:13Z,42.805,6.029,13.2987,4.60001,2470.413,2021-9-07T12:41:33Z
2021-09-07T10:43:16Z,42.805,6.029,13.2986,4.59999,2470.404,2021-9-07T12:44:36Z
2021-09-07T10:46:19Z,42.805,6.029,13.2986,4.59999,2470.404,2021-9-07T12:47:40Z
2021-09-07T10:49:22Z,42.805,6.029,13.2986,4.60000,2470.404,2021-9-07T12:50:43Z
2021-09-07T10:52:25Z,42.805,6.029,13.2987,4.59999,2470.376,2021-9-07T12:53:46Z
2021-09-07T10:55:29Z,42.805,6.029,13.2985,4.60001,2470.38,2021-9-07T12:56:49Z
2021-09-07T10:58:32Z,42.805,6.029,13.2987,4.59999,2470.39,2021-9-07T12:59:52Z
2021-09-07T11:01:35Z,42.805,6.029,13.2983,4.59999,2470.38,2021-9-07T13:02:55Z
2021-09-07T11:04:38Z,42.805,6.029,13.2982,4.59999,2470.39,2021-9-07T13:05:58Z
2021-09-07T11:07:41Z,42.805,6.029,13.2986,4.59999,2470.366,2021-9-07T13:09:01Z
2021-09-07T11:10:44Z,42.805,6.029,13.2984,4.60000,2470.366,2021-9-07T13:12:05Z
2021-09-07T11:13:47Z,42.805,6.029,13.2982,4.59997,2470.343,2021-9-07T13:15:08Z
2021-09-07T11:16:50Z,42.805,6.029,13.2985,4.59999,2470.366,2021-9-07T13:18:11Z
2021-09-07T11:19:54Z,42.805,6.029,13.2982,4.59999,2470.366,2021-9-07T13:21:14Z
2021-09-07T11:22:57Z,42.805,6.029,13.2985,4.59999,2470.357,2021-9-07T13:24:17Z
2021-09-07T11:26:00Z,42.805,6.029,13.2987,4.59999,2470.357,2021-9-07T13:27:20Z
2021-09-07T11:29:03Z,42.805,6.029,13.2986,4.60001,2470.38,2021-9-07T13:30:23Z
2021-09-07T11:32:06Z,42.805,6.029,13.2988,4.59999,2470.343,2021-9-07T13:33:26Z
2021-09-07T11:35:09Z,42.805,6.029,13.2986,4.59999,2470.343,2021-9-07T13:36:30Z
2021-09-07T11:38:12Z,42.805,6.029,13.2990,4.59999,2470.343,2021-9-07T13:39:33Z
2021-09-07T11:41:15Z,42.805,6.029,13.2984,4.60000,2470.366,2021-9-07T13:42:36Z
2021-09-07T11:44:19Z,42.805,6.029,13.2987,4.59999,2470.366,2021-9-07T13:45:39Z
2021-09-07T11:47:22Z,42.805,6.029,13.2987,4.60001,2470.343,2021-9-07T13:48:42Z
2021-09-07T11:50:25Z,42.805,6.029,13.2987,4.59999,2470.357,2021-9-07T13:51:45Z
2021-09-07T11:53:28Z,42.805,6.029,13.2985,4.59998,2470.33,2021-9-07T13:54:48Z
2021-09-07T11:56:31Z,42.805,6.029,13.2986,4.60001,2470.343,2021-9-07T13:57:51Z
2021-09-07T11:59:34Z,42.805,6.029,13.2983,4.59997,2470.343,2021-9-07T14:00:55Z
2021-09-07T12:02:37Z,42.805,6.029,13.2990,4.59999,2470.32,2021-9-07T14:03:58Z
2021-09-07T12:05:40Z,42.805,6.029,13.2984,4.60001,2470.32,2021-9-07T14:07:01Z
2021-09-07T12:08:44Z,42.805,6.029,13.2986,4.59998,2470.343,2021-9-07T14:10:04Z
2021-09-07T12:11:47Z,42.805,6.029,13.2986,4.59998,2470.366,2021-9-07T14:13:07Z
2021-09-07T12:14:50Z,42.805,6.029,13.2984,4.60000,2470.31,2021-9-07T14:16:10Z
2021-09-07T12:17:53Z,42.805,6.029,13.2987,4.59999,2470.32,2021-9-07T14:19:13Z
2021-09-07T12:20:56Z,42.805,6.029,13.2983,4.59998,2470.297,2021-9-07T14:22:16Z
2021-09-07T12:23:59Z,42.805,6.029,13.2987,4.59997,2470.334,2021-9-07T14:25:19Z
2021-09-07T12:27:02Z,42.805,6.029,13.2986,4.59999,2470.31,2021-9-07T14:28:23Z
2021-09-07T12:30:05Z,42.805,6.029,13.2990,4.60004,2470.343,2021-9-07T14:31:26Z
2021-09-07T12:33:09Z,42.805,6.029,13.2986,4.59998,2470.32,2021-9-07T14:34:29Z
2021-09-07T12:36:12Z,42.805,6.029,13.2993,4.59997,2470.32,2021-9-07T14:37:32Z
2021-09-07T12:39:15Z,42.805,6.029,13.2988,4.59998,2470.334,2021-9-07T14:40:35Z
2021-09-07T12:42:18Z,42.805,6.029,13.2988,4.59999,2470.357,2021-9-07T14:43:38Z
2021-09-07T12:45:21Z,42.805,6.029,13.2988,4.59999,2470.297,2021-9-07T14:46:41Z
2021-09-07T12:48:24Z,42.805,6.029,13.2988,4.60002,2470.297,2021-9-07T14:49:44Z
2021-09-07T12:51:27Z,42.805,6.029,13.2986,4.59999,2470.297,2021-9-07T14:52:48Z
2021-09-07T12:54:30Z,42.805,6.029,13.2988,4.60004,2470.297,2021-9-07T14:55:51Z
2021-09-07T12:57:33Z,42.805,6.029,13.2991,4.59999,2470.297,2021-9-07T14:58:54Z
2021-09-07T13:00:37Z,42.805,6.029,13.2990,4.59998,2470.334,2021-9-07T15:01:57Z
2021-09-07T13:03:40Z,42.805,6.029,13.2991,4.59999,2470.297,2021-9-07T15:05:00Z
2021-09-07T13:06:43Z,42.805,6.029,13.2989,4.60001,2470.32,2021-9-07T15:08:03Z
2021-09-07T13:09:46Z,42.805,6.029,13.2984,4.59999,2470.366,2021-9-07T15:11:06Z
2021-09-07T13:12:49Z,42.805,6.029,13.2986,4.59999,2470.297,2021-9-07T15:14:09Z
2021-09-07T13:15:52Z,42.805,6.029,13.2986,4.59999,2470.287,2021-9-07T15:17:13Z
2021-09-07T13:18:55Z,42.805,6.029,13.2986,4.59998,2470.273,2021-9-07T15:20:16Z
2021-09-07T13:21:58Z,42.805,6.029,13.2986,4.59998,2470.297,2021-9-07T15:23:19Z
2021-09-07T13:25:02Z,42.805,6.029,13.2987,4.59999,2470.32,2021-9-07T15:26:22Z
2021-09-07T13:28:05Z,42.805,6.029,13.2989,4.59999,2470.334,2021-9-07T15:29:25Z
2021-09-07T13:31:08Z,42.805,6.029,13.2986,4.59999,2470.31,2021-9-07T15:32:28Z
2021-09-07T13:34:11Z,42.805,6.029,13.2984,4.59998,2470.297,2021-9-07T15:35:31Z
2021-09-07T13:37:14Z,42.805,6.029,13.2985,4.59998,2470.31,2021-9-07T15:38:34Z
2021-09-07T13:40:17Z,42.805,6.029,13.2987,4.59999,2470.287,2021-9-07T15:41:38Z
2021-09-07T13:43:20Z,42.805,6.029,13.2991,4.59998,2470.297,2021-9-07T15:44:41Z
2021-09-07T13:46:23Z,42.805,6.029,13.2986,4.59998,2470.334,2021-9-07T15:47:44Z
2021-09-07T13:49:27Z,42.805,6.029,13.2984,4.59998,2470.31,2021-9-07T15:50:47Z
2021-09-07T13:52:30Z,42.805,6.029,13.2982,4.59998,2470.297,2021-9-07T15:53:50Z
2021-09-07T13:55:33Z,42.805,6.029,13.2988,4.59998,2470.32,2021-9-07T15:56:53Z
2021-09-07T13:58:36Z,42.805,6.029,13.2986,4.59999,2470.297,2021-9-07T15:59:56Z
2021-09-07T14:01:39Z,42.805,6.029,13.2986,4.59999,2470.273,2021-9-07T16:02:59Z
2021-09-07T14:04:42Z,42.805,6.029,13.2989,4.59999,2470.31,2021-9-07T16:06:03Z
2021-09-07T14:07:45Z,42.805,6.029,13.2988,4.59998,2470.32,2021-9-07T16:09:06Z
2021-09-07T14:10:48Z,42.805,6.029,13.2986,4.59999,2470.297,2021-9-07T16:12:09Z
2021-09-07T14:13:52Z,42.805,6.029,13.2990,4.59999,2470.297,2021-9-07T16:15:12Z
2021-09-07T14:16:55Z,42.805,6.029,13.2986,4.59999,2470.31,2021-9-07T16:18:15Z
2021-09-07T14:19:58Z,42.805,6.029,13.2985,4.59999,2470.31,2021-9-07T16:21:18Z
2021-09-07T14:23:01Z,42.805,6.029,13.2988,4.59999,2470.273,2021-9-07T16:24:21Z
2021-09-07T14:26:04Z,42.805,6.029,13.2990,4.60000,2470.297,2021-9-07T16:27:24Z
2021-09-07T14:29:07Z,42.805,6.029,13.2988,4.59999,2470.273,2021-9-07T16:30:28Z
2021-09-07T14:32:10Z,42.805,6.029,13.2990,4.59999,2470.334,2021-9-07T16:33:31Z
2021-09-07T14:35:13Z,42.805,6.029,13.2988,4.59999,2470.32,2021-9-07T16:36:34Z
2021-09-07T14:38:17Z,42.805,6.029,13.2988,4.59999,2470.297,2021-9-07T16:39:37Z
2021-09-07T14:41:20Z,42.805,6.029,13.2989,4.60002,2470.334,2021-9-07T16:42:40Z
2021-09-07T14:44:23Z,42.805,6.029,13.2987,4.60001,2470.273,2021-9-07T16:45:43Z
2021-09-07T14:47:26Z,42.805,6.029,13.2991,4.59999,2470.32,2021-9-07T16:48:46Z
2021-09-07T14:50:29Z,42.805,6.029,13.2986,4.60000,2470.334,2021-9-07T16:51:49Z
2021-09-07T14:53:32Z,42.805,6.029,13.2991,4.59999,2470.31,2021-9-07T16:54:53Z
2021-09-07T14:56:35Z,42.805,6.029,13.2986,4.59999,2470.31,2021-9-07T16:57:56Z
2021-09-07T14:59:38Z,42.805,6.029,13.2990,4.60000,2470.31,2021-9-07T17:00:59Z
2021-09-07T15:02:42Z,42.805,6.029,13.2988,4.60002,2470.297,2021-9-07T17:04:02Z
2021-09-07T15:05:45Z,42.805,6.029,13.2990,4.60002,2470.31,2021-9-07T17:07:05Z
2021-09-07T15:08:48Z,42.805,6.029,13.2986,4.59999,2470.334,2021-9-07T17:10:08Z
2021-09-07T15:11:51Z,42.805,6.029,13.2984,4.60000,2470.297,2021-9-07T17:13:11Z
2021-09-07T15:14:54Z,42.805,6.029,13.2984,4.60000,2470.32,2021-9-07T17:16:14Z